(37) Fides
ephemeris date magn radius delta ra dec elong phase
Today3 Jul 202512.93.026 AU2.670 AU13h16m-10°11'100.6°19.3°
Opposition3 Jul 202611.43.006 AU1.991 AU18h55m-27°28'175.3°1.6°
(37) Fides - 2025-07-03
astro.vanbuitenen.nl


 
-1 year
-1 month
-1 day
Now
+1 day
+1 month
+1 year

The interactive orbit chart above shows the body's path through the solar system and its position at the given date. Green and blue lines are shown perpendicular to the ecliptic plane: Green if the path is above the ecliptic plane, blue if it is below. (Left-click and drag to rotate the view; Right-click and drag to move the view; Use scroll wheel to zoom in our out.)

The orbital elements of Fides are:

            e (Eccentricity)                : 0.1748496
            a (Semimajor axis)              : 2.6426425
            i (Inclination)                 : 3.06800
            Ω (Longitude of ascending node) : 7.24177
            ω (Argument of perihelion)      : 62.26308
            M (Mean anomaly)                : 127.03434
            Epoch                           : 2025 May 05

            L (Longitude of perihelion)     : 69.47098
            B (Latitude of perihelion)      : 2.71519
            P (Orbital period in years)     : 4.30            
        

The light curve chart below shows the estimated development of the minor planet's magnitude.


The all-sky chart below shows the path of the minor planet over the same period as the light curve. The current position is marked yellow.





The following chart shows the path of the minor planet in the next few days. The field of view is optimized for (~10x50) binoculars and finderscopes. A more printer-friendly version of the same chart can be found below.




Ephemerides:
Date       Time       RA (2000)    DEC (2000)    delta   radius  elong  phase   PA    magn
2025-07-03 00:00 UT   13 16 46.7   -10 11 32     2.670    3.026  100.6   19.3   112   12.9 
2025-07-03 05:12 UT   13 16 52.8   -10 12 07     2.673    3.027  100.4   19.3   112   12.9 
2025-07-04 00:00 UT   13 17 15.2   -10 14 18     2.685    3.027   99.7   19.3   112   12.9 
2025-07-05 00:00 UT   13 17 44.8   -10 17 10     2.699    3.028   98.9   19.4   112   12.9 
2025-07-06 00:00 UT   13 18 15.3   -10 20 08     2.714    3.029   98.1   19.4   112   12.9 
2025-07-07 00:00 UT   13 18 46.9   -10 23 11     2.728    3.030   97.3   19.4   112   12.9 
2025-07-08 00:00 UT   13 19 19.4   -10 26 20     2.743    3.031   96.5   19.5   112   12.9 
2025-07-09 00:00 UT   13 19 52.8   -10 29 34     2.758    3.032   95.7   19.5   112   12.9 
2025-07-10 00:00 UT   13 20 27.2   -10 32 53     2.772    3.033   94.9   19.5   112   13.0 
2025-07-11 00:00 UT   13 21 02.5   -10 36 17     2.787    3.033   94.1   19.5   112   13.0 
2025-07-12 00:00 UT   13 21 38.8   -10 39 47     2.801    3.034   93.3   19.5   112   13.0 
2025-07-13 00:00 UT   13 22 15.9   -10 43 21     2.816    3.035   92.5   19.5   112   13.0 
2025-07-14 00:00 UT   13 22 53.9   -10 47 01     2.831    3.036   91.7   19.6   112   13.0 
2025-07-15 00:00 UT   13 23 32.8   -10 50 45     2.845    3.037   90.9   19.6   112   13.0 
2025-07-16 00:00 UT   13 24 12.6   -10 54 34     2.860    3.038   90.1   19.5   112   13.0 
2025-07-17 00:00 UT   13 24 53.2   -10 58 28     2.875    3.039   89.4   19.5   112   13.0 
2025-07-18 00:00 UT   13 25 34.6   -11 02 26     2.889    3.039   88.6   19.5   112   13.1 
2025-07-19 00:00 UT   13 26 16.9   -11 06 28     2.904    3.040   87.8   19.5   112   13.1 
2025-07-20 00:00 UT   13 27 00.1   -11 10 36     2.919    3.041   87.1   19.5   112   13.1 
2025-07-21 00:00 UT   13 27 44.0   -11 14 47     2.933    3.042   86.3   19.5   112   13.1 
2025-07-22 00:00 UT   13 28 28.7   -11 19 03     2.948    3.043   85.5   19.4   112   13.1 
2025-07-23 00:00 UT   13 29 14.3   -11 23 23     2.963    3.043   84.8   19.4   112   13.1 
2025-07-24 00:00 UT   13 30 00.6   -11 27 47     2.977    3.044   84.0   19.4   112   13.1 
2025-07-25 00:00 UT   13 30 47.7   -11 32 15     2.992    3.045   83.3   19.3   112   13.1 
2025-07-26 00:00 UT   13 31 35.6   -11 36 47     3.006    3.046   82.5   19.3   112   13.1 
2025-07-27 00:00 UT   13 32 24.2   -11 41 23     3.021    3.047   81.8   19.3   112   13.1 
2025-07-28 00:00 UT   13 33 13.6   -11 46 03     3.035    3.047   81.1   19.2   112   13.2 
2025-07-29 00:00 UT   13 34 03.6   -11 50 46     3.050    3.048   80.3   19.2   112   13.2 
2025-07-30 00:00 UT   13 34 54.5   -11 55 33     3.064    3.049   79.6   19.1   112   13.2 
2025-07-31 00:00 UT   13 35 46.0   -12 00 24     3.079    3.050   78.9   19.1   112   13.2 
2025-08-01 00:00 UT   13 36 38.2   -12 05 18     3.093    3.050   78.1   19.0   112   13.2 
2025-08-02 00:00 UT   13 37 31.1   -12 10 15     3.107    3.051   77.4   18.9   112   13.2 


    Terminology:
            
    delta:  distance between minor planet and earth in AU
    radius: distance between minor planet and sun in AU
    magn:   magnitude (brightness) estimate    
    ra:     right ascension in hours (24h = 360deg)
    dec:    declination in degrees
    elong:  elongation in degrees (angle sun-earth-minor planet)    
    phase:  phase angle in degrees (angle sun-minor planet-earth)        
    AU:     Astronomical Unit (mean distance between earth and sun: 149597870.7 km
    

Orbital elements provided by the MPC (Minor Planet Center).
Calculations by a modified version of AAPlus, a C# implementation of the AA+ project by PJ Naughter from the algorithms presented in the book "Astronomical Algorithms" by Jean Meeus.
NGC2000 dso catalog and star labels from VizieR as provided by the Strasbourg astronomical Data Center.
Tycho2 catalog from the ESO archive.